COSMOS 1293

Satellite information

Favourite Embed

Satellite Type and Status

PAYLOADIN ORBIT

Key statistics

Satellite COSMOS 1293 at a glance.

Uptime

15986

Days in orbit

Revolutions

≈ 12.6

Per day

Orbit

LEO

Low Earth Orbit

Inclination

74.0

Latest

Satellite identification and parameters

Extended collection of information and parameters for COSMOS 1293.

Object identification

Identified? True

Debris? False

Object name: COSMOS 1293

International designator: 1981-074G

Object number (NORAD): 12642

Object ID (CCSDS): 12642

Country: COMMONWEALTH OF INDEPENDENT STATES (CIS)

Current information (Y/N): Y

RCS size: MEDIUM

Orbital parameters

Period: 114.585 minutes

Inclination: 74.0336 deg

SMA: 7814.685 km

Apoapsis: 1465.001 km

Periapsis: 1408.098 km

RAAN: 241.7889 deg

Eccentricy: 0.0036408

Argument of periapsis: 250.9082 deg

Mean anomaly: 227.4085 deg

Mean motion: 12.56711448 rev/day

Mean motion (dot): -0.0000002 rev/day2

B* drag term: -0.000022676 1/REarth

Two-line elements (TLE)

Creation date: May 12, 2025, 2:31 a.m.

Reference frame: TEME

Reference center: EARTH

Epoch: May 11, 2025, 7:05 p.m. UTC

TLE line 0: 0 COSMOS 1293

TLE line 1: 1 12642U 81074G 25131.79581372 -.00000020 00000-0 -22676-4 0 9990

TLE line 2: 2 12642 74.0336 241.7889 0036408 250.9082 227.4085 12.56711448 7640

Live tracking on map

Real-time ground track for satellite COSMOS 1293.

In-orbit conjunctions

There are no conjunctions computed for COSMOS 1293, at the moment. Check back to stay up to date, as we update our databases every day.

Go to all conjunctions

Associated space launch

Military communications satellites

COSMOS 1293 was lifted into orbit during the mission ‘Kosmos-3M | Strela-1M 217-224’, on board a Kosmos-3M space rocket.

The launch took place on Aug. 6, 1981, 11:49 a.m. from 132/2.

For more information about the launch, click the button.

Launch to space Kosmos-3M | Strela-1M 217-224
Kosmos-3M | Strela-1M 217-224

Agency: N/A

Status: Launch Successful

Launch date: Aug. 6, 1981, 11:49 a.m. UTC

Rocket: Kosmos-3M

Launch pad: 132/2

Location: Plesetsk Cosmodrome, Russian Federation

...

Latest news about this satellite

There are no fresh news available about this satellite. Check back as we update our databases every day.


Newsletter sign-up

Weekly statistics, charts and insights to help you stay on top of the space industry.